星链-31296 (STARLINK-31296 )

导读

STARLINK-31296是美国太空探索技术公司SpaceX星链星座的组网卫星,于2024年1月29日发射入轨,属于星链互联网卫星星座的扩容卫星。星链系统旨在为全球用户提供低延迟、高速率的卫星互联网服务,该卫星的成功入轨进一步推进了星链星座的全球覆盖部署进程。

基本信息
目录编号:
58879
目录名称:
STARLINK-31296
国际标识:
2024-020D
轨道中心:
EARTH
卫星名称:
星链-31296
卫星全名:
星链-31296 (STARLINK-31296 )
卫星状态:
在轨 (已飞行956 天)
发射日期:
2024-01-29 UTC
国别 :
美国 (US)
星等 :
--
该卫星已列入 空间交会检测服务 Space Conjunction Data Service (SCDS) ,当前飞行风险评估等级: 无高风险
轨道信息
数据来源 国际轨道数据
星历时间: 2026-09-11T11:19:16+0800
16小时前
查看轨道信息
半长轴: 6840.819km
偏心率: 0.0001746
轨道倾角: 53.159°
近地点辐角 94.027°
升交点赤经 153.365°
平近点角 266.093°
近地点: 461.487km
远地点: 463.877km
周期: 93.847分钟
每日圈数: 15.344073
详细信息
固有亮度:
5
最大亮度:
0.3
卫星平台:
Starlink v2.0 mini
覆盖范围:
全球
运营商:
太空探索技术公司
运营商所在国:
美国
制造商(研发单位):
太空探索技术公司
制造商所在国:
美国
使用方式:
暂无
卫星简介
星链(Starlink)计划是由太空探索技术公司(SpaceX)提出的一个巨型低轨卫星互联网星座项目,计划在2019年至2024年间在太空搭建由约1.2万颗卫星组成的“星链”网络,其中1584颗将部署在地球上空550千米处的近地轨道,并从2020年开始工作。该卫星仍在工作。
2D轨道图
3D轨道图
轨道高度分析图
轨道倾角分析图
轨道综合分析图
查看轨道综合分析图
交会数据列表
事件ID 空间交会对象 最接近时刻(TCA) 交会距离 交会风险概率(CRP) 交会风险指数(CRI) 操作
CDM_260914-002305-872405-887921
2026-09-14T
00:23:56+0000
0.507 km
远距离
1.25136E-4 高风险 0.77
CDM_260913-225005-872405-887921
2026-09-13T
22:50:09+0000
1.011 km
极远距离
1.518043E-5 中风险 0.59
CDM_260914-042605-887906-277121
2026-09-14T
04:26:05+0000
1.181 km
极远距离
4.642021E-6 低风险 0.48
CDM_260914-015705-872405-887921
2026-09-14T
01:57:44+0000
1.934 km
极远距离
1.922139E-6 低风险 0.41
CDM_260913-211605-872405-887921
2026-09-13T
21:16:21+0000
2.410 km
极远距离
1.192558E-6 低风险 0.37
CDM_260914-060105-887906-492821
2026-09-14T
06:01:54+0000
2.228 km
极远距离
1.155487E-6 低风险 0.36
CDM_260914-073505-887906-492821
2026-09-14T
07:35:42+0000
2.864 km
极远距离
7.725351E-7 极低风险 0.33
与全量物体交会距离演化趋势
与全量物体交会风险概率演化趋势